Погода в Энтеббе

Уганда     0°04′03″N   32°27′39″E
темп.,
°C
ветер,
м/с
пор.,
м/с
влажн.,
%
обл.,
%
осадки,
мм/ч
давл.,
гПа
погр.,
м
11 апреля, вс
вс1100:00+24юв7767100 0.3 1011693
03:00+23ююв7775100 4.5 1010509
06:00+22ю6675100 5.2 1011563
09:00+21ю9987100 12.0 1013600
12:00+22ююз6679100 0.9 1013466
15:00+23ююз7774100 0.9 1010934
18:00+23юз7774100 0.0 1009843
21:00+23ююз7774100 1.3 1012483
12 апреля, пн
пн1200:00+23ююз5570100 3.4 1012470
03:00+23ююз7775100 7.7 1011603
06:00+21ююз4581100 2.8 1012394
09:00+22юз8884100 6.1 1015545
12:00+22ююз6679100 0.2 1014808
15:00+23ююз5576100 0.3 1011834
18:00+23ююз557693 0.0 1010620
21:00+23ююз337435 0.2 1012393
13 апреля, вт
вт1300:00+24юз3465100 0.9 1012381
03:00+24ю6664100 1.4 1011627
06:00+23ююз5572100 3.4 1012362
09:00+23ю4472100 7.4 1014325
12:00+22ююз6676100 2.0 1014561
15:00+22ююз5579100 2.0 1012645
18:00+22юз5576100 0.0 1010421
21:00+22юз2375100 0.7 1013148
14 апреля, ср
ср1400:00+22ссз6679100 1.9 1014234
03:00+19ссз6891100 3.6 1014404
06:00+19с6790100 0.3 1014403
09:00+20св3383100 2.4 1016449
12:00+21ю3383100 0.7 1015581
15:00+21ююз3379100 0.7 1012617
18:00+22юз2275100 0.0 1011459
21:00+22всв017055 0.0 1013333
15 апреля, чт
чт1500:00+22ссз2270100 0.0 1014284
03:00+21ссз2279100 1.1 1012215
06:00+21ююз1276100 2.0 1013210
09:00+23ю556858 2.0 1014980
12:00+23ю557179 0.1 1014910
15:00+24ю446982 0.1 1011873
18:00+24ю4569100 0.0 1010645
21:00+24юз4469100 0.0 1011529